User: anonymous   Login
Location: Unspecified
(0.0000°N, 0.0000°E)
Time: 19:03:39
(UTC+00:00)
Language:

Delta IV Demo - Orbit

View from above orbital plane
View from above orbital plane
View from above satellite
View from above satellite

Ground track
Ground track

The orbit data is extracted from the following two-line orbital elements,

1 28500U 04050A   19081.28570110 -.00000153 +00000-0 +00000-0 0  9997
2 28500 016.4504 020.6760 2769169 213.4006 341.9246 01.41309495073526
Epoch (UTC): 22 March 2019 06:51:24
Eccentricity: 0.2769169
inclination: 16.4504°
perigee height: 17877 km
apogee height: 36455 km
right ascension of ascending node: 20.6760°
argument of perigee: 213.4006°
revolutions per day: 1.41309495
mean anomaly at epoch: 341.9246°
orbit number at epoch: 7352

The dashed part of the orbit path shows where the satellite is in the earth's shadow,  

DLR